�������l�o���
Date,Time,MP-1(��Sv/h),MP-2(��Sv/h),MP-3(��Sv/h),MP-4(��Sv/h),MP-5(��Sv/h),MP-6(��Sv/h),MP-7(��Sv/h),����,����(m/s),���J
2015/04/04,00:00,0.550,0.340,0.578,0.535,0.561,0.257,0.229,���k��,4.6,��
2015/04/04,00:10,0.552,0.337,0.576,0.528,0.557,0.255,0.229,���k��,2.0,��
2015/04/04,00:20,0.549,0.340,0.581,0.534,0.564,0.256,0.230,�k,0.8,��
2015/04/04,00:30,0.548,0.337,0.576,0.532,0.556,0.256,0.230,�k�k��,6.6,��
2015/04/04,00:40,0.550,0.340,0.578,0.536,0.563,0.257,0.228,�k��,5.8,��
2015/04/04,00:50,0.550,0.338,0.575,0.530,0.557,0.256,0.229,�k,3.8,��
2015/04/04,01:00,0.548,0.340,0.579,0.536,0.561,0.256,0.230,�k�k��,5.2,��
2015/04/04,01:10,0.551,0.338,0.575,0.531,0.558,0.257,0.228,�k,7.2,��
2015/04/04,01:20,0.549,0.339,0.579,0.534,0.562,0.256,0.230,�k�k��,4.7,��
2015/04/04,01:30,0.552,0.338,0.576,0.532,0.557,0.255,0.228,�k�k��,1.9,��
2015/04/04,01:40,0.548,0.339,0.579,0.533,0.560,0.255,0.230,�k,7.0,��
2015/04/04,01:50,0.553,0.339,0.577,0.531,0.559,0.255,0.229,�k�k��,7.3,��
2015/04/04,02:00,0.547,0.338,0.577,0.533,0.559,0.256,0.229,�k��,6.7,��
2015/04/04,02:10,0.551,0.341,0.579,0.533,0.560,0.256,0.229,�k�k��,7.1,��
2015/04/04,02:20,0.548,0.338,0.575,0.533,0.558,0.256,0.228,�k��,7.3,��
2015/04/04,02:30,0.552,0.340,0.581,0.533,0.562,0.256,0.229,�k�k��,6.4,��
2015/04/04,02:40,0.549,0.339,0.577,0.530,0.558,0.255,0.228,�k,7.2,��
2015/04/04,02:50,0.549,0.338,0.581,0.536,0.561,0.255,0.229,�k�k��,9.5,��
2015/04/04,03:00,0.552,0.339,0.576,0.530,0.558,0.256,0.229,�k,7.8,��
2015/04/04,03:10,0.548,0.338,0.577,0.534,0.556,0.257,0.228,�k,7.2,��
2015/04/04,03:20,0.552,0.339,0.580,0.533,0.559,0.257,0.229,�k�k��,8.5,��
2015/04/04,03:30,0.550,0.340,0.577,0.531,0.558,0.256,0.229,�k,10.0,��
2015/04/04,03:40,0.549,0.338,0.580,0.534,0.559,0.256,0.229,�k,10.4,��
2015/04/04,03:50,0.553,0.336,0.579,0.531,0.559,0.256,0.228,�k,11.8,��
2015/04/04,04:00,0.551,0.338,0.576,0.533,0.556,0.255,0.228,�k,12.0,��
2015/04/04,04:10,0.549,0.337,0.578,0.534,0.558,0.257,0.229,�k,11.0,��
2015/04/04,04:20,0.552,0.339,0.576,0.531,0.557,0.256,0.229,�k,12.2,��
2015/04/04,04:30,0.549,0.338,0.575,0.533,0.558,0.256,0.228,�k,11.5,��
2015/04/04,04:40,0.550,0.338,0.582,0.531,0.557,0.256,0.228,�k,9.9,��
2015/04/04,04:50,0.551,0.338,0.576,0.532,0.559,0.257,0.230,�k,10.9,��
2015/04/04,05:00,0.548,0.338,0.577,0.533,0.555,0.255,0.229,�k,11.8,��
2015/04/04,05:10,0.552,0.338,0.579,0.531,0.559,0.257,0.231,�k,10.0,��
2015/04/04,05:20,0.552,0.337,0.577,0.531,0.557,0.255,0.229,�k,9.9,��
2015/04/04,05:30,0.549,0.337,0.577,0.532,0.556,0.255,0.228,�k�k��,8.6,��
2015/04/04,05:40,0.552,0.338,0.579,0.532,0.558,0.257,0.228,�k�k��,8.0,��
2015/04/04,05:50,0.548,0.339,0.575,0.535,0.559,0.257,0.229,�k�k��,3.6,��
2015/04/04,06:00,0.550,0.339,0.580,0.531,0.556,0.256,0.228,�k,4.5,��
2015/04/04,06:10,0.551,0.338,0.577,0.532,0.558,0.256,0.228,�k,5.5,��
2015/04/04,06:20,0.548,0.340,0.578,0.533,0.555,0.255,0.230,�k,4.6,��
2015/04/04,06:30,0.552,0.338,0.579,0.528,0.557,0.258,0.229,�k,5.4,��
2015/04/04,06:40,0.550,0.335,0.576,0.535,0.557,0.255,0.229,�k,7.3,��
2015/04/04,06:50,0.549,0.338,0.579,0.531,0.555,0.257,0.228,�k,7.6,��
2015/04/04,07:00,0.551,0.337,0.576,0.531,0.558,0.257,0.228,�k,8.9,��
2015/04/04,07:10,0.549,0.338,0.576,0.533,0.557,0.256,0.228,�k�k��,7.8,��
2015/04/04,07:20,0.553,0.338,0.578,0.530,0.556,0.257,0.229,�k,10.8,��
2015/04/04,07:30,0.552,0.336,0.574,0.534,0.558,0.255,0.229,�k,9.5,��
2015/04/04,07:40,0.549,0.338,0.580,0.530,0.557,0.257,0.229,�k,10.6,��
2015/04/04,07:50,0.551,0.338,0.578,0.533,0.557,0.255,0.228,�k,7.8,��
2015/04/04,08:00,0.550,0.336,0.578,0.531,0.556,0.256,0.229,�k�k��,6.7,��
2015/04/04,08:10,0.550,0.339,0.579,0.528,0.557,0.256,0.229,�k,7.0,��
2015/04/04,08:20,0.553,0.338,0.577,0.533,0.557,0.255,0.228,�k,6.0,��
2015/04/04,08:30,0.550,0.337,0.577,0.531,0.556,0.256,0.229,�k,6.2,��
2015/04/04,08:40,0.550,0.337,0.576,0.533,0.557,0.256,0.227,�k,5.5,��
2015/04/04,08:50,0.548,0.334,0.576,0.529,0.558,0.256,0.229,�k,4.8,��
2015/04/04,09:00,0.548,0.338,0.581,0.532,0.556,0.255,0.228,�k,3.9,��
2015/04/04,09:10,0.550,0.335,0.574,0.529,0.561,0.255,0.230,�k,4.8,��
2015/04/04,09:20,0.550,0.339,0.579,0.532,0.553,0.256,0.230,�k,5.9,��
2015/04/04,09:30,0.551,0.334,0.574,0.528,0.558,0.256,0.229,�k�k��,6.1,��
2015/04/04,09:40,0.547,0.338,0.579,0.532,0.556,0.254,0.229,�k,7.5,��
2015/04/04,09:50,0.552,0.336,0.574,0.527,0.560,0.256,0.228,�k�k��,7.5,��
2015/04/04,10:00,0.550,0.337,0.579,0.533,0.557,0.255,0.230,�k�k��,9.6,��
2015/04/04,10:10,0.551,0.335,0.577,0.530,0.560,0.256,0.227,�k,8.6,��
2015/04/04,10:20,0.549,0.336,0.578,0.534,0.557,0.254,0.229,�k�k��,8.1,��
2015/04/04,10:30,0.550,0.337,0.576,0.530,0.559,0.256,0.229,�k�k��,9.1,��
2015/04/04,10:40,0.551,0.336,0.578,0.534,0.554,0.255,0.229,�k,7.6,��
2015/04/04,10:50,0.549,0.337,0.577,0.530,0.562,0.258,0.230,�k�k��,8.6,��
2015/04/04,11:00,0.551,0.334,0.576,0.534,0.555,0.256,0.229,�k�k��,7.5,��
2015/04/04,11:10,0.546,0.337,0.579,0.529,0.561,0.255,0.230,�k,5.5,��
2015/04/04,11:20,0.552,0.336,0.576,0.531,0.555,0.254,0.229,�k,5.0,��
2015/04/04,11:30,0.548,0.337,0.576,0.533,0.558,0.256,0.230,�k�k��,5.9,��
2015/04/04,11:40,0.552,0.335,0.578,0.532,0.556,0.257,0.229,�k�k��,6.3,��
2015/04/04,11:50,0.551,0.337,0.576,0.533,0.559,0.257,0.230,�k�k��,4.9,��
2015/04/04,12:00,0.552,0.337,0.581,0.530,0.557,0.257,0.229,�k��,5.3,��
2015/04/04,12:10,0.545,0.340,0.576,0.534,0.560,0.257,0.230,�k��,3.8,��
2015/04/04,12:20,0.552,0.337,0.579,0.530,0.558,0.255,0.228,�k�k��,1.9,��
2015/04/04,12:30,0.547,0.341,0.577,0.536,0.560,0.257,0.229,�k�k��,3.0,��
2015/04/04,12:40,0.551,0.337,0.579,0.532,0.558,0.257,0.229,�k�k��,4.3,��
2015/04/04,12:50,0.550,0.340,0.578,0.535,0.561,0.256,0.230,�k�k��,3.8,��
2015/04/04,13:00,0.551,0.338,0.580,0.532,0.559,0.255,0.230,�k�k��,4.8,��
2015/04/04,13:10,0.549,0.339,0.578,0.537,0.562,0.257,0.228,�k,3.4,��
2015/04/04,13:20,0.549,0.337,0.577,0.532,0.556,0.255,0.230,�k�k��,3.2,��
2015/04/04,13:30,0.554,0.338,0.581,0.537,0.560,0.258,0.229,�k�k��,3.0,��
2015/04/04,13:40,0.548,0.338,0.577,0.531,0.557,0.255,0.229,�k�k��,3.9,��
2015/04/04,13:50,0.552,0.338,0.579,0.534,0.564,0.257,0.229,�k�k��,4.2,��
2015/04/04,14:00,0.549,0.339,0.576,0.532,0.557,0.255,0.230,�k�k��,3.8,��
2015/04/04,14:10,0.554,0.337,0.582,0.536,0.560,0.256,0.230,�k�k��,5.0,��
2015/04/04,14:20,0.550,0.338,0.577,0.532,0.557,0.257,0.230,�k�k��,3.5,��
2015/04/04,14:30,0.551,0.338,0.580,0.536,0.562,0.256,0.230,�k�k��,2.3,��
2015/04/04,14:40,0.549,0.338,0.577,0.532,0.560,0.256,0.229,�k,2.8,��
2015/04/04,14:50,0.551,0.338,0.581,0.534,0.559,0.257,0.230,�k,3.3,��
2015/04/04,15:00,0.552,0.339,0.580,0.535,0.561,0.256,0.229,�k,3.7,��
2015/04/04,15:10,0.549,0.341,0.578,0.533,0.561,0.257,0.230,�k,4.1,��
2015/04/04,15:20,0.555,0.338,0.580,0.535,0.564,0.256,0.230,�k,3.8,��
2015/04/04,15:30,0.549,0.340,0.577,0.533,0.557,0.256,0.229,�k�k��,2.7,��
2015/04/04,15:40,0.552,0.339,0.580,0.535,0.560,0.255,0.229,�k,2.5,��
2015/04/04,15:50,0.549,0.340,0.579,0.532,0.557,0.256,0.229,�k,2.2,��
2015/04/04,16:00,0.549,0.340,0.578,0.535,0.560,0.257,0.229,�k�k��,2.5,��
2015/04/04,16:10,0.551,0.338,0.578,0.535,0.560,0.257,0.229,�k�k��,2.3,��
2015/04/04,16:20,0.548,0.340,0.576,0.534,0.558,0.255,0.229,�k,2.5,��
2015/04/04,16:30,0.554,0.338,0.581,0.534,0.561,0.256,0.228,�k�k��,3.2,��
2015/04/04,16:40,0.549,0.338,0.578,0.534,0.558,0.257,0.229,�k�k��,2.5,��
2015/04/04,16:50,0.550,0.340,0.579,0.536,0.559,0.255,0.231,�k�k��,2.5,��
2015/04/04,17:00,0.555,0.338,0.579,0.532,0.560,0.256,0.229,�k�k��,1.9,��
2015/04/04,17:10,0.548,0.339,0.578,0.536,0.560,0.256,0.229,�k�k��,2.8,��
2015/04/04,17:20,0.551,0.339,0.581,0.533,0.561,0.256,0.229,�k�k��,2.6,��
2015/04/04,17:30,0.551,0.338,0.577,0.533,0.559,0.257,0.229,�k�k��,2.7,��
2015/04/04,17:40,0.551,0.340,0.580,0.534,0.560,0.257,0.230,�k,3.1,��
2015/04/04,17:50,0.551,0.339,0.580,0.534,0.560,0.256,0.230,�k�k��,2.8,��
2015/04/04,18:00,0.549,0.339,0.578,0.535,0.557,0.257,0.229,�k�k��,3.6,��
2015/04/04,18:10,0.554,0.339,0.582,0.534,0.560,0.256,0.229,�k,2.8,��
2015/04/04,18:20,0.548,0.338,0.578,0.533,0.559,0.257,0.229,�k,3.3,��
2015/04/04,18:30,0.552,0.341,0.579,0.535,0.556,0.255,0.230,�k�k��,3.3,��
2015/04/04,18:40,0.554,0.340,0.579,0.534,0.560,0.258,0.229,�k�k��,1.9,��
2015/04/04,18:50,0.548,0.338,0.579,0.534,0.558,0.256,0.230,�k�k��,2.0,��
2015/04/04,19:00,0.554,0.342,0.583,0.533,0.558,0.256,0.229,�k��,2.7,��
2015/04/04,19:10,0.552,0.339,0.578,0.531,0.557,0.257,0.229,�k�k��,2.4,��
2015/04/04,19:20,0.550,0.338,0.576,0.536,0.559,0.256,0.231,�k�k��,2.8,��
2015/04/04,19:30,0.553,0.339,0.583,0.533,0.559,0.255,0.229,�k,2.5,��
2015/04/04,19:40,0.553,0.336,0.578,0.534,0.558,0.257,0.230,�k�k��,2.4,��
2015/04/04,19:50,0.552,0.339,0.578,0.535,0.558,0.256,0.230,�k,1.7,��
2015/04/04,20:00,0.552,0.339,0.581,0.532,0.558,0.256,0.230,�k,2.1,��
2015/04/04,20:10,0.550,0.338,0.578,0.535,0.560,0.256,0.230,�k,1.9,��
2015/04/04,20:20,0.554,0.340,0.581,0.533,0.556,0.257,0.230,�k,1.4,��
2015/04/04,20:30,0.550,0.340,0.578,0.532,0.557,0.258,0.228,�k��,0.7,��
2015/04/04,20:40,0.551,0.338,0.579,0.535,0.558,0.256,0.230,�k��,0.8,��
2015/04/04,20:50,0.552,0.338,0.582,0.534,0.558,0.256,0.230,�k,0.9,��
2015/04/04,21:00,0.550,0.337,0.577,0.533,0.557,0.256,0.230,�k��,1.1,��
2015/04/04,21:10,0.553,0.338,0.580,0.534,0.559,0.255,0.229,�k��,0.8,��
2015/04/04,21:20,0.551,0.339,0.580,0.534,0.559,0.256,0.231,�k��,0.8,��
2015/04/04,21:30,0.551,0.337,0.578,0.534,0.558,0.257,0.230,�k��,0.8,��
2015/04/04,21:40,0.552,0.340,0.581,0.534,0.557,0.256,0.231,�k��,0.7,��
2015/04/04,21:50,0.549,0.340,0.578,0.534,0.560,0.256,0.230,�k��,0.7,��
2015/04/04,22:00,0.552,0.338,0.577,0.536,0.560,0.256,0.230,�k�k��,1.6,��
2015/04/04,22:10,0.552,0.339,0.580,0.532,0.558,0.257,0.229,�k,1.7,��
2015/04/04,22:20,0.548,0.338,0.578,0.534,0.560,0.256,0.229,�k,1.1,��
2015/04/04,22:30,0.552,0.339,0.580,0.535,0.558,0.256,0.231,�k�k��,1.0,��
2015/04/04,22:40,0.551,0.340,0.580,0.533,0.558,0.256,0.229,�k�k��,1.2,��
2015/04/04,22:50,0.551,0.338,0.580,0.534,0.560,0.258,0.232,�k�k��,1.4,��
2015/04/04,23:00,0.552,0.339,0.581,0.535,0.558,0.257,0.229,�k�k��,1.4,��
2015/04/04,23:10,0.550,0.340,0.578,0.533,0.560,0.256,0.230,�k�k��,1.7,��
2015/04/04,23:20,0.552,0.338,0.579,0.535,0.558,0.256,0.230,�k�k��,1.2,��
2015/04/04,23:30,0.550,0.339,0.582,0.534,0.557,0.255,0.231,�k��,1.8,��
2015/04/04,23:40,0.549,0.340,0.578,0.536,0.559,0.256,0.229,�k�k��,1.7,��
2015/04/04,23:50,0.552,0.338,0.579,0.536,0.558,0.257,0.231,�k�k��,1.9,��
